Total_Precipitation_Accumulation
0.00 0.00 0.03 0.02 0.01 0.01 0.01 0.03 0.05 0.05 0.06 0.07 0.10 0.10 0.07 0.04 0.03 0.03 0.03 0.03 0.03 0.03 0.03 0.03 0.05 0.05 0.06 0.06 0.04 0.01 0.00 0.00 0.01 0.00 0.01 0.00 0.00 0.00 0.00 0.00 0.01 0.00 0.00
0.00 0.00 0.02 0.02 0.01 0.01 0.02 0.03 0.04 0.03 0.04 0.05 0.08 0.09 0.06 0.04 0.03 0.02 0.04 0.06 0.05 0.03 0.04 0.04 0.04 0.04 0.05 0.05 0.03 0.01 0.00 0.00 0.00 0.00 0.01 0.00 0.00 0.00 0.00 0.00 0.00 0.00 0.00
0.00 0.00 0.02 0.02 0.01 0.01 0.01 0.03 0.05 0.04 0.03 0.03 0.04 0.05 0.03 0.03 0.03 0.02 0.03 0.09 0.11 0.09 0.06 0.03 0.02 0.02 0.02 0.02 0.02 0.01 0.01 0.00 0.00 0.01 0.01 0.01 0.01 0.00 0.01 0.01 0.00 0.00 0.00
0.00 0.00 0.01 0.02 0.01 0.01 0.00 0.01 0.03 0.04 0.04 0.05 0.07 0.05 0.04 0.04 0.03 0.03 0.03 0.06 0.09 0.07 0.07 0.03 0.02 0.02 0.01 0.01 0.01 0.01 0.02 0.01 0.01 0.01 0.01 0.07 0.07 0.03 0.02 0.02 0.01 0.00 0.00
0.00 0.00 0.02 0.02 0.01 0.01 0.00 0.01 0.02 0.03 0.05 0.07 0.08 0.07 0.07 0.06 0.05 0.05 0.04 0.05 0.06 0.04 0.04 0.04 0.03 0.02 0.01 0.01 0.01 0.02 0.02 0.01 0.01 0.01 0.03 0.08 0.09 0.05 0.03 0.02 0.01 0.00 0.00
0.00 0.00 0.02 0.02 0.01 0.01 0.01 0.01 0.01 0.03 0.04 0.05 0.05 0.05 0.05 0.05 0.06 0.06 0.05 0.07 0.09 0.08 0.05 0.06 0.06 0.07 0.05 0.02 0.02 0.02 0.02 0.02 0.02 0.02 0.03 0.03 0.07 0.06 0.02 0.02 0.01 0.01 0.00
0.00 0.01 0.02 0.02 0.01 0.01 0.01 0.01 0.01 0.02 0.03 0.03 0.03 0.03 0.03 0.03 0.04 0.04 0.05 0.06 0.06 0.09 0.08 0.09 0.09 0.07 0.08 0.07 0.04 0.03 0.02 0.04 0.03 0.01 0.01 0.02 0.06 0.05 0.05 0.04 0.04 0.02 0.01
0.00 0.01 0.02 0.02 0.01 0.01 0.01 0.01 0.01 0.01 0.02 0.02 0.02 0.02 0.01 0.01 0.02 0.03 0.04 0.03 0.02 0.02 0.04 0.07 0.11 0.09 0.07 0.11 0.09 0.06 0.05 0.06 0.06 0.03 0.02 0.05 0.08 0.09 0.11 0.11 0.09 0.06 0.03
0.00 0.00 0.01 0.01 0.01 0.01 0.01 0.01 0.01 0.01 0.01 0.01 0.01 0.01 0.01 0.00 0.01 0.01 0.01 0.01 0.00 0.00 0.02 0.02 0.03 0.04 0.05 0.08 0.12 0.11 0.08 0.08 0.10 0.14 0.08 0.14 0.18 0.19 0.25 0.24 0.20 0.16 0.13
0.01 0.00 0.01 0.01 0.01 0.01 0.01 0.01 0.01 0.01 0.01 0.01 0.01 0.00 0.00 0.00 0.00 0.00 0.00 0.00 0.00 0.00 0.00 0.01 0.01 0.02 0.03 0.05 0.08 0.16 0.19 0.12 0.04 0.07 0.16 0.15 0.14 0.28 0.42 0.41 0.39 0.35 0.32
0.01 0.01 0.01 0.00 0.01 0.01 0.01 0.00 0.00 0.00 0.00 0.00 0.00 0.00 0.00 0.00 0.01 0.02 0.01 0.01 0.01 0.02 0.04 0.04 0.04 0.04 0.04 0.05 0.09 0.20 0.22 0.09 0.03 0.05 0.10 0.09 0.13 0.32 0.52 0.56 0.54 0.52 0.49
0.01 0.01 0.01 0.00 0.00 0.01 0.01 0.00 0.00 0.00 0.00 0.00 0.01 0.01 0.00 0.00 0.01 0.02 0.01 0.04 0.09 0.12 0.14 0.20 0.21 0.15 0.11 0.15 0.33 0.31 0.09 0.05 0.05 0.06 0.10 0.07 0.14 0.28 0.45 0.66 0.73 0.66 0.63
0.00 0.00 0.00 0.00 0.01 0.01 0.01 0.01 0.00 0.00 0.00 0.00 0.01 0.01 0.01 0.00 0.00 0.00 0.01 0.04 0.09 0.10 0.15 0.26 0.25 0.17 0.18 0.24 0.24 0.23 0.08 0.02 0.02 0.04 0.12 0.13 0.17 0.32 0.50 0.75 0.94 0.89 0.80
0.00 0.00 0.00 0.00 0.01 0.01 0.00 0.00 0.00 0.00 0.00 0.00 0.00 0.00 0.00 0.00 0.01 0.03 0.06 0.08 0.11 0.13 0.20 0.23 0.25 0.14 0.11 0.11 0.09 0.11 0.12 0.13 0.10 0.16 0.27 0.24 0.17 0.24 0.50 0.76 1.02 1.09 0.89
0.00 0.00 0.00 0.00 0.01 0.01 0.01 0.00 0.00 0.00 0.00 0.00 0.00 0.00 0.00 0.01 0.05 0.11 0.13 0.15 0.12 0.13 0.19 0.22 0.15 0.15 0.12 0.09 0.07 0.08 0.08 0.06 0.08 0.21 0.28 0.27 0.26 0.35 0.60 0.85 1.03 1.07 0.93
0.00 0.00 0.00 0.00 0.00 0.01 0.01 0.00 0.00 0.00 0.00 0.00 0.00 0.00 0.00 0.03 0.12 0.17 0.16 0.18 0.14 0.13 0.20 0.23 0.17 0.19 0.12 0.08 0.05 0.03 0.03 0.03 0.03 0.07 0.11 0.17 0.30 0.43 0.51 0.67 0.89 0.98 0.91
0.00 0.00 0.00 0.00 0.00 0.01 0.01 0.00 0.00 0.00 0.00 0.00 0.00 0.00 0.01 0.04 0.15 0.18 0.19 0.18 0.19 0.18 0.26 0.25 0.20 0.19 0.12 0.08 0.06 0.04 0.03 0.04 0.04 0.07 0.12 0.20 0.25 0.33 0.39 0.45 0.65 0.81 0.81
0.02 0.01 0.00 0.01 0.01 0.01 0.02 0.04 0.03 0.02 0.01 0.01 0.01 0.01 0.02 0.05 0.12 0.21 0.18 0.16 0.19 0.21 0.25 0.28 0.22 0.19 0.19 0.12 0.07 0.04 0.03 0.04 0.05 0.07 0.14 0.21 0.21 0.14 0.25 0.38 0.44 0.52 0.63
0.10 0.05 0.03 0.02 0.03 0.07 0.14 0.18 0.14 0.12 0.09 0.07 0.05 0.07 0.09 0.09 0.12 0.24 0.23 0.21 0.15 0.24 0.21 0.17 0.19 0.22 0.24 0.19 0.06 0.07 0.04 0.05 0.06 0.07 0.09 0.13 0.13 0.13 0.15 0.24 0.42 0.43 0.55
0.27 0.20 0.13 0.10 0.17 0.35 0.50 0.49 0.45 0.34 0.26 0.20 0.16 0.15 0.15 0.17 0.19 0.29 0.28 0.29 0.22 0.29 0.30 0.24 0.26 0.27 0.24 0.19 0.05 0.06 0.04 0.03 0.04 0.07 0.08 0.09 0.12 0.12 0.11 0.14 0.18 0.23 0.32
0.46 0.44 0.35 0.39 0.59 0.73 0.66 0.69 0.73 0.69 0.58 0.41 0.28 0.23 0.23 0.21 0.27 0.38 0.32 0.41 0.34 0.35 0.43 0.35 0.37 0.33 0.29 0.26 0.19 0.12 0.03 0.01 0.03 0.06 0.09 0.10 0.09 0.13 0.15 0.23 0.30 0.33 0.31
0.73 0.79 0.89 1.11 1.23 1.05 1.03 1.12 1.09 1.01 0.75 0.58 0.43 0.35 0.30 0.28 0.30 0.34 0.45 0.46 0.41 0.42 0.52 0.48 0.40 0.30 0.28 0.33 0.32 0.24 0.14 0.11 0.11 0.11 0.15 0.14 0.14 0.13 0.15 0.22 0.33 0.41 0.34
1.19 1.35 1.53 1.68 1.58 1.34 1.30 1.25 1.04 0.96 0.80 0.68 0.60 0.46 0.35 0.33 0.35 0.37 0.41 0.49 0.45 0.45 0.52 0.58 0.46 0.39 0.41 0.44 0.50 0.42 0.32 0.28 0.16 0.07 0.07 0.11 0.17 0.18 0.15 0.13 0.13 0.11 0.11
1.55 1.87 2.08 2.03 1.88 1.65 1.52 1.35 1.20 1.03 0.84 0.71 0.60 0.45 0.37 0.36 0.39 0.40 0.41 0.47 0.48 0.47 0.48 0.48 0.51 0.57 0.51 0.45 0.53 0.58 0.54 0.43 0.30 0.15 0.07 0.07 0.12 0.16 0.19 0.15 0.10 0.04 0.04
1.49 1.76 1.93 1.97 1.86 1.67 1.49 1.29 1.12 0.91 0.76 0.63 0.49 0.40 0.37 0.42 0.38 0.38 0.40 0.47 0.52 0.54 0.51 0.53 0.58 0.57 0.50 0.44 0.45 0.47 0.52 0.52 0.44 0.34 0.22 0.15 0.09 0.07 0.10 0.09 0.07 0.05 0.05
1.28 1.48 1.58 1.57 1.44 1.30 1.14 1.01 0.97 0.93 0.86 0.73 0.61 0.51 0.47 0.43 0.36 0.35 0.36 0.44 0.50 0.50 0.48 0.50 0.53 0.53 0.48 0.47 0.44 0.44 0.45 0.44 0.50 0.50 0.36 0.28 0.19 0.05 0.04 0.05 0.05 0.07 0.11